OneWeb SL0189

operational
NORAD ID: 48217 Int'l Des: 2021-031 Owner: ONEWEBN Country: UK Constellation: oneweb
LEOCIRCULARPOLARONEWEB_TYPE

OneWeb SL0189について

説明を読み込み中...

リアルタイム位置

3D地球を読み込み中...

次回通過

高度履歴

Altitude vs Time

uPlot chart will show altitude changes over time

軌道要素

1 48217U 21031H 25257.54062634 .00000288 00000-0 74179-3 0 9999
2 48217 87.9079 344.5779 0001794 113.4571 246.6747 13.14505049212010
Epoch: Sep 14, 2025 • Age: 22 hours

現在のステータス

高度 1218.9 km
速度 7.24 km/s
衛星直下点 -32.16°S, 172.58°W
打ち上げ日 Apr 25, 2021
運用期間 4.3 years
タイプ internet

技術仕様

分類 Payload
質量 148.00 kg
乾燥質量 140.00 kg
総質量 148.00 kg
長さ 1.30 m
直径 1.00 m
スパン 5.00 m
形状 Trapezoid+2 pan
製造者 ONEWUS
バスタイプ ARROW
フェーズステータス In Orbit
所有者/国 ONEWEBN/UK

大規模コンステレーション

Loading constellations...